Change the Weather History Date:

Tuesday, March 12, 2013

  Actual Average Record
Temperature  
Mean Temperature 39 °F -  
Max Temperature 43 °F 47 °F 66 °F (2001)
Min Temperature 35 °F 29 °F 8 °F (1999)
Degree Days  
Heating Degree Days 26    
Moisture  
Dew Point 31 °F    
Average Humidity 73    
Maximum Humidity 86    
Minimum Humidity 61    
Precipitation  
Precipitation 0.00 in - - ()
Sea Level Pressure  
Sea Level Pressure 29.94 in    
Wind  
Wind Speed 11 mph (WSW)    
Max Wind Speed 20 mph    
Max Gust Speed 23 mph    
Visibility 10 miles    
Events Rain    
Averages and records for this station are not official NWS values.
T = Trace of Precipitation, MM = Missing Value Source: NWS Daily Summary

Daily Weather History Graph

Daily Weather History Graph

Search for Another Location

Airport or City:

Trip Planner

Search our weather history database for the weather conditions in past years. The results will help you decide how hot, cold, wet, or windy it might be!

Date:

Astronomy

Mar. 12, 2013 Rise Set
Actual Time 7:47 AM EDT 7:35 PM EDT
Civil Twilight 7:20 AM EDT 8:02 PM EDT
Nautical Twilight 6:49 AM EDT 8:34 PM EDT
Astronomical Twilight 6:17 AM EDT 9:05 PM EDT
Moon 7:53 AM EDT (3/12) 8:49 PM EDT (3/12)
Length of Visible Light 12h 42m
Length of Day
11h 48m
New Moon, 1% of the Moon is Illuminated
Mar 12
New Moon
Mar 19
First Quarter
Mar 27
Full
Apr 3
Last Quarter
Apr 10
New

Hourly Weather History & Observations

Time (EDT) Temp. Windchill Dew Point Humidity Pressure Visibility Wind Dir Wind Speed Gust Speed Precip Events Conditions
12:15 AM 43.0 °F 36.8 °F 34.3 °F 72% 29.82 in 10.0 mi WSW 11.5 mph - N/A   Overcast
12:35 AM 42.3 °F 36.8 °F 34.3 °F 74% 29.82 in 10.0 mi West 9.2 mph - N/A   Overcast
12:55 AM 41.4 °F 35.2 °F 34.5 °F 77% 29.82 in 10.0 mi West 10.4 mph - N/A   Overcast
1:15 AM 41.4 °F 36.2 °F 34.3 °F 76% 29.83 in 10.0 mi West 8.1 mph - N/A   Overcast
1:35 AM 41.4 °F 34.0 °F 33.4 °F 73% 29.83 in 10.0 mi West 13.8 mph - N/A   Overcast
1:55 AM 41.0 °F 34.3 °F 32.9 °F 73% 29.83 in 10.0 mi West 11.5 mph 18.4 mph N/A   Overcast
2:15 AM 40.5 °F 34.1 °F 32.9 °F 74% 29.84 in 10.0 mi WSW 10.4 mph - N/A   Overcast
2:35 AM 40.3 °F 32.6 °F 32.4 °F 73% 29.85 in 10.0 mi West 13.8 mph 20.7 mph N/A   Overcast
2:55 AM 40.3 °F 32.2 °F 31.5 °F 71% 29.86 in 10.0 mi West 15.0 mph 19.6 mph N/A   Overcast
3:15 AM 40.1 °F 31.6 °F 31.1 °F 70% 29.86 in 10.0 mi West 16.1 mph 21.9 mph N/A   Overcast
3:35 AM 39.6 °F 31.7 °F 31.5 °F 73% 29.87 in 10.0 mi West 13.8 mph - N/A   Light Drizzle
3:55 AM 38.5 °F 29.6 °F 32.0 °F 78% 29.87 in 7.0 mi WSW 16.1 mph 23.0 mph N/A   Drizzle
4:15 AM 37.0 °F 30.4 °F 32.0 °F 82% 29.87 in 10.0 mi West 9.2 mph - N/A   Overcast
4:35 AM 37.2 °F 31.9 °F 32.0 °F 81% 29.87 in 10.0 mi West 6.9 mph - N/A   Overcast
4:55 AM 37.8 °F 29.8 °F 32.0 °F 80% 29.87 in 10.0 mi West 12.7 mph 18.4 mph N/A   Overcast
5:15 AM 38.1 °F 31.2 °F 31.5 °F 77% 29.88 in 10.0 mi WSW 10.4 mph - N/A   Overcast
5:35 AM 37.6 °F 30.0 °F 31.5 °F 79% 29.87 in 7.0 mi West 11.5 mph - N/A   Overcast
5:55 AM 37.0 °F 29.8 °F 31.6 °F 81% 29.88 in 7.0 mi West 10.4 mph - N/A   Overcast
6:15 AM 36.3 °F 29.5 °F 31.3 °F 82% 29.90 in 10.0 mi WSW 9.2 mph - N/A   Overcast
6:35 AM 35.6 °F 28.0 °F 31.3 °F 84% 29.91 in 10.0 mi West 10.4 mph - N/A   Overcast
6:55 AM 36.3 °F 28.4 °F 30.0 °F 78% 29.92 in 10.0 mi West 11.5 mph - N/A   Overcast
7:15 AM 36.5 °F 28.2 °F 29.3 °F 75% 29.92 in 10.0 mi West 12.7 mph - N/A   Overcast
7:35 AM 36.5 °F 29.7 °F 28.9 °F 74% 29.92 in 10.0 mi WSW 9.2 mph - N/A   Overcast
7:55 AM 36.5 °F 30.3 °F 28.9 °F 74% 29.93 in 10.0 mi WSW 8.1 mph - N/A   Overcast
8:15 AM 36.5 °F 30.3 °F 29.3 °F 75% 29.93 in 10.0 mi WSW 8.1 mph - N/A   Overcast
8:35 AM 36.5 °F 31.8 °F 29.5 °F 76% 29.93 in 10.0 mi WSW 5.8 mph - N/A   Overcast
8:55 AM 36.5 °F 30.3 °F 29.8 °F 77% 29.94 in 10.0 mi SW 8.1 mph - N/A   Overcast
9:35 AM 36.5 °F 31.0 °F 30.4 °F 78% 29.95 in 10.0 mi SW 6.9 mph - N/A   Overcast
9:55 AM 36.9 °F 30.1 °F 30.4 °F 77% 29.95 in 10.0 mi SW 9.2 mph - N/A   Overcast
10:15 AM 36.9 °F 29.6 °F 30.2 °F 77% 29.96 in 10.0 mi WSW 10.4 mph 13.8 mph N/A   Overcast
10:35 AM 36.7 °F 29.4 °F 30.6 °F 78% 29.96 in 7.0 mi SW 10.4 mph - N/A   Overcast
10:55 AM 37.0 °F 29.8 °F 31.3 °F 80% 29.96 in 10.0 mi SW 10.4 mph - N/A   Overcast
11:15 AM 37.6 °F 29.6 °F 30.9 °F 77% 29.96 in 10.0 mi WSW 12.7 mph - N/A   Overcast
11:35 AM 38.1 °F 28.8 °F 30.7 °F 75% 29.97 in 10.0 mi WSW 17.3 mph 21.9 mph N/A   Overcast
11:55 AM 38.3 °F 30.5 °F 30.7 °F 74% 29.97 in 10.0 mi WSW 12.7 mph 21.9 mph N/A   Overcast
12:15 PM 39.7 °F 31.5 °F 30.7 °F 70% 29.96 in 10.0 mi WSW 15.0 mph 19.6 mph N/A   Overcast
12:35 PM 41.4 °F 33.6 °F 29.8 °F 64% 29.95 in 10.0 mi WSW 15.0 mph 21.9 mph N/A   Overcast
12:55 PM 41.7 °F 34.1 °F 29.1 °F 61% 29.96 in 10.0 mi SW 15.0 mph 19.6 mph N/A   Overcast
1:15 PM 40.3 °F 31.6 °F 28.8 °F 63% 29.97 in 10.0 mi WSW 17.3 mph 21.9 mph N/A   Overcast
1:35 PM 39.6 °F 30.0 °F 27.9 °F 63% 29.98 in 10.0 mi WSW 19.6 mph - N/A   Overcast
1:55 PM 39.2 °F 30.8 °F 28.0 °F 64% 29.98 in 10.0 mi West 15.0 mph - N/A   Overcast
2:15 PM 39.2 °F 30.5 °F 28.4 °F 65% 29.97 in 10.0 mi WSW 16.1 mph - N/A   Overcast
2:35 PM 38.8 °F 29.7 °F 28.2 °F 66% 29.97 in 10.0 mi SW 17.3 mph 20.7 mph N/A   Overcast
2:55 PM 39.2 °F 31.2 °F 28.6 °F 66% 29.97 in 10.0 mi WSW 13.8 mph 20.7 mph N/A   Overcast
3:15 PM 39.4 °F 31.1 °F 28.2 °F 64% 29.96 in 10.0 mi WSW 15.0 mph 21.9 mph N/A   Overcast
3:35 PM 39.4 °F 31.1 °F 28.2 °F 64% 29.96 in 10.0 mi WSW 15.0 mph - N/A   Overcast
3:55 PM 39.9 °F 31.1 °F 28.2 °F 63% 29.96 in 10.0 mi WSW 17.3 mph - N/A   Overcast
4:15 PM 39.4 °F 31.4 °F 28.4 °F 65% 29.96 in 10.0 mi WSW 13.8 mph 19.6 mph N/A   Overcast
4:35 PM 39.9 °F 32.5 °F 28.6 °F 64% 29.96 in 10.0 mi WSW 12.7 mph - N/A   Overcast
4:55 PM 39.7 °F 32.3 °F 28.6 °F 64% 29.97 in 10.0 mi SW 12.7 mph 19.6 mph N/A   Overcast
5:15 PM 39.9 °F 32.1 °F 28.6 °F 64% 29.97 in 10.0 mi WSW 13.8 mph 19.6 mph N/A   Overcast
5:35 PM 40.3 °F 32.6 °F 28.8 °F 63% 29.97 in 10.0 mi WSW 13.8 mph 18.4 mph N/A   Overcast
5:55 PM 40.1 °F 32.4 °F 28.9 °F 64% 29.98 in 10.0 mi SW 13.8 mph - N/A   Overcast
6:15 PM 39.9 °F 33.9 °F 28.8 °F 64% 29.97 in 10.0 mi SW 9.2 mph 16.1 mph N/A   Overcast
6:35 PM 40.1 °F 34.7 °F 29.1 °F 65% 29.98 in 10.0 mi SW 8.1 mph - N/A   Overcast
6:55 PM 40.1 °F 34.1 °F 29.3 °F 65% 29.98 in 10.0 mi SSW 9.2 mph - N/A   Overcast
7:15 PM 39.7 °F 35.6 °F 30.0 °F 68% 29.98 in 10.0 mi SW 5.8 mph - N/A   Overcast
7:35 PM 39.4 °F 36.1 °F 29.8 °F 69% 29.98 in 10.0 mi SW 4.6 mph - N/A   Overcast
7:55 PM 39.0 °F 36.8 °F 29.5 °F 69% 29.98 in 10.0 mi SSW 3.5 mph - N/A   Overcast
8:15 PM 38.7 °F 36.3 °F 29.7 °F 70% 29.99 in 10.0 mi SSW 3.5 mph - N/A   Overcast
8:35 PM 38.5 °F 35.0 °F 29.7 °F 71% 29.99 in 10.0 mi South 4.6 mph - N/A   Overcast
8:55 PM 37.9 °F 35.5 °F 31.1 °F 76% 29.99 in 10.0 mi South 3.5 mph - N/A   Overcast
9:15 PM 38.3 °F 33.2 °F 31.3 °F 76% 29.99 in 10.0 mi SW 6.9 mph - N/A Rain Rain
9:35 PM 38.8 °F 30.4 °F 31.1 °F 74% 30.01 in 5.0 mi WSW 15.0 mph 19.6 mph N/A Rain Rain
9:55 PM 36.5 °F 28.7 °F 31.5 °F 82% 30.00 in 10.0 mi SW 11.5 mph 19.6 mph N/A   Overcast
10:15 PM 36.3 °F 28.4 °F 32.0 °F 84% 30.01 in 10.0 mi WSW 11.5 mph - N/A   Overcast
10:35 PM 36.5 °F 30.3 °F 32.0 °F 84% 30.01 in 10.0 mi WSW 8.1 mph - N/A   Overcast
10:55 PM 36.5 °F 31.0 °F 32.0 °F 84% 30.00 in 10.0 mi SSW 6.9 mph - N/A   Overcast
11:15 PM 36.0 °F 32.1 °F 32.0 °F 86% 30.00 in 10.0 mi SW 4.6 mph - N/A   Overcast
11:35 PM 35.8 °F 31.9 °F 31.8 °F 86% 30.00 in 10.0 mi SSW 4.6 mph - N/A   Overcast
11:55 PM 35.2 °F 32.4 °F 31.5 °F 86% 29.99 in 10.0 mi SSW 3.5 mph - N/A   Scattered Clouds